Location: Schommer Observatory
(40.5200°N, 74.4500°W)
Time: 06:17:21
(UTC-04:00)

Vanguard 2 - All Passes

Search period start: 19 June 2018 00:00
Search period end: 29 June 2018 00:00
Orbit: 553 x 2939 km, 32.9° (Epoch: 18 June)

Date Brightness Start Highest point End Pass type
(mag) Time Alt. Az. Time Alt. Az. Time Alt. Az.
19 Jun - 03:21:43 10° S 03:23:51 12° SSE 03:25:46 10° SE visible
19 Jun - 05:27:52 10° SW 05:32:03 24° S 05:35:26 10° ESE daylight
19 Jun - 07:36:11 10° WSW 07:39:45 28° S 07:43:15 10° ESE daylight
19 Jun - 09:44:49 10° SW 09:47:26 16° SSW 09:50:25 10° SSE daylight
20 Jun - 03:37:42 10° SSW 03:41:53 17° SSE 03:45:12 10° ESE visible
20 Jun - 05:45:34 10° SW 05:50:00 28° S 05:53:33 10° ESE daylight
20 Jun - 07:54:15 10° WSW 07:57:39 25° S 08:01:04 10° SE daylight
20 Jun - 10:03:57 10° SW 10:05:22 11° SSW 10:06:52 10° S daylight
21 Jun - 03:54:42 10° SW 03:59:55 22° SSE 04:03:47 10° ESE visible
21 Jun - 06:03:26 10° WSW 06:07:57 31° S 06:11:33 10° ESE daylight
21 Jun - 08:12:25 10° WSW 08:15:33 21° SSW 08:18:41 10° SE daylight
22 Jun - 02:04:51 10° S 02:09:16 15° SSE 02:12:50 10° SE visible
22 Jun - 04:12:07 10° SW 04:17:55 28° S 04:22:03 10° ESE visible
22 Jun - 06:21:25 10° WSW 06:25:52 32° S 06:29:29 10° ESE daylight
22 Jun - 08:30:49 10° WSW 08:33:25 16° SSW 08:36:02 10° SSE daylight
23 Jun - 02:21:05 10° SSW 02:27:20 20° SSE 02:31:57 10° ESE visible
23 Jun - 04:29:49 10° SW 04:35:55 33° S 04:40:10 10° ESE visible
23 Jun - 06:39:29 10° WSW 06:43:46 29° S 06:47:18 10° SE daylight
23 Jun - 08:49:48 10° SW 08:51:15 12° SSW 08:52:42 10° S daylight
24 Jun - 00:32:53 10° S 00:36:08 12° SSE 00:38:59 10° SE visible
24 Jun - 02:38:03 10° SW 02:45:24 26° SSE 02:50:29 10° ESE visible
24 Jun - 04:47:42 10° WSW 04:53:53 36° S 04:58:11 10° ESE visible
24 Jun - 06:57:39 10° WSW 07:01:39 26° SSW 07:05:00 10° SE daylight
25 Jun - 00:47:34 10° S 00:54:14 17° SSE 00:59:24 10° ESE visible
25 Jun - 02:55:26 10° SW 03:03:28 32° SSE 03:08:45 10° ESE visible
25 Jun - 05:05:42 10° WSW 05:11:51 38° S 05:16:07 10° ESE daylight
25 Jun - 07:15:58 10° WSW 07:19:28 20° SSW 07:22:31 10° SSE daylight
26 Jun - 01:03:47 10° SSW 01:12:21 23° SSE 01:18:26 10° ESE visible
26 Jun - 03:13:07 10° SW 03:21:30 38° S 03:26:53 10° ESE visible
26 Jun - 05:23:48 10° WSW 05:29:47 37° S 05:33:59 10° ESE daylight
26 Jun - 07:34:34 10° WSW 07:37:14 15° SSW 07:39:39 10° SSE daylight
26 Jun - 23:15:16 10° S 23:20:36 13° SSE 23:25:09 10° SE night (unlit)
27 Jun - 01:20:40 10° SW 01:30:27 30° SSE 01:37:00 10° ESE visible
27 Jun - 03:30:59 10° WSW 03:39:31 42° S 03:44:54 10° ESE visible
27 Jun - 05:41:58 10° WSW 05:47:40 33° SSW 05:51:44 10° SE daylight
27 Jun - 07:54:19 10° SW 07:54:56 10° SSW 07:55:32 10° SSW daylight
27 Jun - 23:30:01 10° S 23:38:41 19° SSE 23:45:24 10° ESE visible
28 Jun - 01:37:58 10° SW 01:48:32 36° SSE 01:55:18 10° ESE visible
28 Jun - 03:49:00 10° WSW 03:57:32 45° S 04:02:51 10° ESE visible
28 Jun - 06:00:13 10° WSW 06:05:30 28° SSW 06:09:23 10° SE daylight
